Вернуться в каталог

HAWK-10A

АктивенНаукаSSO
NORAD 60540·PAYLOAD·🇺🇸 United States

Запущен Aug 16, 2024 с Vandenberg Space Force Base

Loading…

Ближайшие Пролёты (ближайшие 24 часа)

TLE

СвежийSource: Space-Track

Эпоха: Sep 14, 2026, 03:47 UTC

1 60540U 24149CA  26257.15825248  .00001657  00000-0  15000-3 0  9990
2 60540  97.6827 331.5211 0004827 121.4790 238.6904 14.96727847113290

Отслеживайте HAWK-10A в реальном времени с AllMySat

Download on the App Store